GW6771 Weather Reports


time (UTC)temp
F
wind
direction
speed
knots
gust
knots
rain 1hr
in
rain 24hr
in
rain mn
in
humidity
%
barometer
mb
20260502184038 63 203 3.5 7.0 0.00 0.00 0.00 73 1013.4
20260502183017 63 203 3.5 7.8 0.00 0.00 0.00 72 1013.4
20260502182037 63 203 5.2 8.7 0.00 0.00 0.00 72 1013.4
20260502181017 63 203 4.3 7.8 0.00 0.00 0.00 71 1013.4
20260502164016 66 180 5.2 8.7 0.00 0.00 0.00 67 1014.1
20260502163037 66 203 6.1 9.6 0.00 0.00 0.00 67 1014.3
20260502162017 65 203 4.3 9.6 0.00 0.00 0.00 67 1014.5
20260502161016 66 225 7.0 10.4 0.00 0.00 0.00 66 1014.7
20260502151016 68 225 10.4 15.6 0.00 0.00 0.00 60 1015.2
20260502123016 73 203 7.8 13.9 0.00 0.00 0.00 44 1016.3
20260502122036 74 203 9.6 19.1 0.00 0.00 0.00 44 1016.5
20260502121017 75 203 10.4 17.4 0.00 0.00 0.00 43 1016.4
20260502115016 74 158 4.3 11.3 0.00 0.00 0.00 43 1016.7
20260502114016 73 180 7.8 15.6 0.00 0.00 0.00 43 1016.7
20260502113017 74 180 7.0 13.0 0.00 0.00 0.00 45 1016.9
20260502112016 73 180 7.8 12.2 0.00 0.00 0.00 45 1016.9
20260502111056 73 203 7.8 14.8 0.00 0.00 0.00 47 1016.9
20260502110016 73 180 8.7 13.9 0.00 0.00 0.00 48 1017.1
20260502105016 73 180 7.8 13.9 0.00 0.00 0.00 49 1017.1
20260502104016 72 158 8.7 13.9 0.00 0.00 0.00 53 1017.2
20260502103016 72 180 7.0 11.3 0.00 0.00 0.00 56 1017.1
20260502102016 71 158 6.1 9.6 0.00 0.00 0.00 64 1017.1
20260502101016 71 158 6.1 11.3 0.00 0.00 0.00 66 1017.3
20260502100208 71 158 7.0 13.9 0.00 0.00 0.00 67 1017.3
20260502071016 56 0.0 0.0 0.00 0.00 0.00 95 1018.8
20260502070036 55 0.0 0.0 0.00 0.00 0.00 95 1018.8
20260502065016 54 0.0 0.0 0.00 0.00 0.00 94 1018.8
20260502064016 53 0.0 0.0 0.00 0.00 0.00 94 1018.8
20260502063016 53 0.0 0.0 0.00 0.00 0.00 94 1018.9
20260502062015 52 0.0 0.0 0.00 0.00 0.00 94 1018.8
20260502061016 52 0.0 0.0 0.00 0.00 0.00 95 1018.9
20260502060017 51 0.0 0.0 0.00 0.00 0.00 94 1018.8
20260502055015 51 0.0 0.0 0.00 0.00 0.00 94 1018.9
20260502054015 51 0.0 0.0 0.00 0.00 0.00 94 1018.8
20260502053035 51 203 0.9 2.6 0.00 0.00 0.00 94 1018.9
20260502052015 51 0.0 0.9 0.00 0.00 0.00 94 1018.9
20260502051035 50 315 0.9 1.7 0.00 0.00 0.00 94 1019.0
20260502050035 50 0.0 0.0 0.00 0.00 0.00 94 1019.0
20260502045016 50 0.0 0.0 0.00 0.00 0.00 94 1019.1
20260502044016 50 0.0 1.7 0.00 0.00 0.00 94 1019.2
20260502043016 50 0.0 0.9 0.00 0.00 0.00 93 1019.2
20260502042015 50 0.0 0.0 0.00 0.00 0.00 93 1019.2
20260502041015 51 0.0 0.0 0.00 0.00 0.00 94 1019.2
20260502040015 51 0.0 0.0 0.00 0.00 0.00 94 1019.3
20260502035015 51 0.0 0.0 0.00 0.00 0.00 94 1019.2
20260502034035 51 0.0 0.0 0.00 0.00 0.00 93 1019.4
20260502033015 51 0.0 0.0 0.00 0.00 0.00 93 1019.5
20260502032015 51 0.0 0.0 0.00 0.00 0.00 93 1019.5
20260502031015 51 0.0 0.0 0.00 0.00 0.00 93 1019.5
20260502030036 51 315 0.9 1.7 0.00 0.00 0.00 93 1019.5
20260502025015 51 315 0.9 1.7 0.00 0.00 0.00 93 1019.5
20260502024035 51 315 0.9 2.6 0.00 0.00 0.00 93 1019.5
20260502023015 51 293 2.6 3.5 0.00 0.00 0.00 92 1019.5
20260502022017 51 293 0.9 3.5 0.00 0.00 0.00 92 1019.6
20260502021017 52 225 1.7 3.5 0.00 0.00 0.00 92 1019.6
20260502020037 52 0.0 0.9 0.00 0.00 0.00 92 1019.9
20260502015017 53 225 1.7 2.6 0.00 0.00 0.00 92 1020.1
20260502014037 53 0.0 1.7 0.00 0.00 0.00 92 1020.2
20260502013017 53 225 1.7 2.6 0.00 0.00 0.00 92 1020.1
20260502012017 53 225 1.7 2.6 0.00 0.00 0.00 92 1020.1
20260502011057 54 225 1.7 3.5 0.00 0.00 0.00 92 1020.3
20260502010017 54 0.0 0.0 0.00 0.00 0.00 91 1020.3
20260502005017 54 0.0 0.0 0.00 0.00 0.00 91 1020.2
20260502004017 55 0.0 0.0 0.00 0.00 0.00 91 1020.3
20260502003057 55 0.0 0.0 0.00 0.00 0.00 91 1020.5
20260502002037 55 0.0 0.0 0.00 0.00 0.00 91 1020.5
20260502001017 55 0.0 0.9 0.00 0.00 0.00 90 1020.5
20260502000017 55 270 1.7 3.5 0.00 0.00 0.00 90 1020.6
20260501235017 56 270 3.5 5.2 0.00 0.00 0.00 90 1020.8
20260501234017 56 270 2.6 4.3 0.00 0.00 0.00 90 1020.8
20260501233017 56 270 2.6 4.3 0.00 0.00 0.00 89 1020.9
20260501232017 57 0.0 0.0 0.00 0.00 0.00 89 1020.8
20260501231017 57 270 1.7 2.6 0.00 0.00 0.00 88 1020.8
20260501230017 57 270 0.9 2.6 0.00 0.00 0.00 88 1020.9
20260501225017 58 0.0 0.0 0.00 0.00 0.00 88 1020.8
20260501224017 58 0.0 0.0 0.00 0.00 0.00 87 1020.8
20260501223017 58 0.0 0.0 0.00 0.00 0.00 86 1020.8
20260501222017 58 0.0 0.0 0.00 0.00 0.00 86 1020.7
20260501221037 59 0.0 0.0 0.00 0.00 0.00 86 1020.8
20260501220017 59 0.0 0.0 0.00 0.00 0.00 86 1020.8
20260501215055 59 0.0 0.0 0.00 0.00 0.00 85 1020.7
20260501214015 59 0.0 0.9 0.00 0.00 0.00 84 1020.7
20260501213035 60 270 0.9 3.5 0.00 0.00 0.00 83 1020.8
20260501212016 60 248 2.6 5.2 0.00 0.00 0.00 83 1020.9
20260501211015 60 270 2.6 5.2 0.00 0.00 0.00 82 1020.9
20260501210035 60 315 2.6 3.5 0.00 0.00 0.00 82 1020.9
20260501205015 60 315 2.6 3.5 0.00 0.00 0.00 82 1020.7
20260501204015 61 293 1.7 3.5 0.00 0.00 0.00 81 1020.9
20260501203015 61 293 0.9 1.7 0.00 0.00 0.00 81 1020.9
20260501202017 61 270 1.7 4.3 0.00 0.00 0.00 80 1020.9
20260501201017 62 293 0.9 3.5 0.00 0.00 0.00 80 1020.8
20260501200017 62 315 1.7 5.2 0.00 0.00 0.00 80 1020.6
20260501195017 62 315 2.6 6.1 0.00 0.00 0.00 80 1020.5
20260501194017 63 293 2.6 4.3 0.00 0.00 0.00 80 1020.5
20260501193017 63 248 3.5 7.0 0.00 0.00 0.00 81 1020.5
20260501192017 63 248 5.2 9.6 0.00 0.00 0.00 81 1020.5
20260501191037 63 338 0.9 1.7 0.00 0.00 0.00 81 1020.2
20260501190017 63 338 2.6 3.5 0.00 0.00 0.00 80 1020.2
20260501185037 64 338 2.6 4.3 0.00 0.00 0.00 80 1020.2